When you browse on this site, cookies collect data to enhance your experience and personalize the content and advertising you see.
Visit our Privacy Policy to learn more. By continuing to use the site, you agree to this use of cookies and data.
  • în România
  • Lista ţărilor
  • Pe 7 zile
  • Temperatura apei
  • Hartă satelitară
  • Meteo pe hartă
  • Widget-uri
  • user-avatar
    Intrare

    Meteo pe oră la Reading

    Astăzi, 19 Iunie, Miercuri

    Timp Temperatura Precipitaţii Vânt Presiune Umiditate
    00:00 +14°C° 0 mm 2 m/s 753 mmHg 97%
    01:00 +14°C° 0 mm 2 m/s 752 mmHg 97%
    02:00 +14°C° 0 mm 2 m/s 752 mmHg 97%
    03:00 +13°C° 0 mm 2 m/s 751 mmHg 97%
    04:00 +14°C° 0 mm 2 m/s 751 mmHg 96%
    05:00 +13°C° 0 mm 3 m/s 751 mmHg 96%
    06:00 +15°C° 0 mm 2 m/s 751 mmHg 96%
    07:00 +15°C° 0 mm 2 m/s 751 mmHg 95%
    08:00 +16°C° 0 mm 2 m/s 751 mmHg 94%
    09:00 +16°C° 0 mm 2 m/s 752 mmHg 93%
    10:00 +17°C° 0.2 mm 2 m/s 752 mmHg 90%
    11:00 +18°C° 0.2 mm 2 m/s 752 mmHg 86%
    12:00 +20°C° 0 mm 1 m/s 752 mmHg 86%
    13:00 +19°C° 1 mm 2 m/s 752 mmHg 85%
    14:00 +19°C° 1 mm 2 m/s 752 mmHg 85%
    15:00 +19°C° 1 mm 2 m/s 752 mmHg 84%
    16:00 +19°C° 0.9 mm 2 m/s 752 mmHg 86%
    17:00 +18°C° 0.9 mm 2 m/s 752 mmHg 88%
    18:00 +18°C° 0.9 mm 2 m/s 752 mmHg 89%
    19:00 +17°C° 0.1 mm 3 m/s 752 mmHg 91%
    20:00 +16°C° 0.1 mm 3 m/s 753 mmHg 92%
    21:00 +14°C° 0.1 mm 3 m/s 753 mmHg 93%
    22:00 +13°C° 0 mm 3 m/s 753 mmHg 94%
    23:00 +12°C° 0 mm 3 m/s 753 mmHg 94%

    Mâine, 20 Iunie, Joi

    Timp Temperatura Precipitaţii Vânt Presiune Umiditate
    00:00 +11°C° 0 mm 4 m/s 754 mmHg 94%
    01:00 +10°C° 0 mm 3 m/s 754 mmHg 94%
    02:00 +9°C° 0 mm 3 m/s 754 mmHg 94%
    03:00 +8°C° 0 mm 3 m/s 754 mmHg 94%
    04:00 +8°C° 0 mm 4 m/s 754 mmHg 94%
    05:00 +10°C° 0 mm 4 m/s 754 mmHg 94%
    06:00 +11°C° 0 mm 4 m/s 755 mmHg 94%
    07:00 +12°C° 0.1 mm 4 m/s 755 mmHg 89%
    08:00 +14°C° 0.1 mm 4 m/s 755 mmHg 84%
    09:00 +15°C° 0.1 mm 4 m/s 756 mmHg 80%
    10:00 +16°C° 0.2 mm 5 m/s 756 mmHg 77%
    11:00 +16°C° 0.2 mm 5 m/s 756 mmHg 74%
    12:00 +17°C° 0.2 mm 5 m/s 756 mmHg 71%
    13:00 +16°C° 0.2 mm 5 m/s 756 mmHg 72%
    14:00 +16°C° 0.2 mm 5 m/s 756 mmHg 74%
    15:00 +16°C° 0.2 mm 6 m/s 756 mmHg 75%
    16:00 +16°C° 0.1 mm 5 m/s 757 mmHg 76%
    17:00 +16°C° 0.1 mm 5 m/s 757 mmHg 76%
    18:00 +15°C° 0.1 mm 4 m/s 757 mmHg 76%
    19:00 +14°C° 0 mm 4 m/s 757 mmHg 80%
    20:00 +12°C° 0 mm 3 m/s 758 mmHg 84%
    21:00 +10°C° 0 mm 3 m/s 758 mmHg 88%
    22:00 +9°C° 0 mm 3 m/s 758 mmHg 89%
    23:00 +8°C° 0 mm 3 m/s 759 mmHg 91%

    Poimâine, 21 Iunie, Vineri

    Timp Temperatura Precipitaţii Vânt Presiune Umiditate
    00:00 +7°C° 0 mm 3 m/s 759 mmHg 92%
    01:00 +7°C° 0 mm 3 m/s 759 mmHg 92%
    02:00 +7°C° 0 mm 2 m/s 759 mmHg 93%
    03:00 +7°C° 0 mm 2 m/s 759 mmHg 93%
    04:00 +8°C° 0 mm 2 m/s 760 mmHg 91%
    05:00 +9°C° 0 mm 3 m/s 760 mmHg 89%
    06:00 +10°C° 0 mm 3 m/s 760 mmHg 87%
    07:00 +11°C° 0 mm 3 m/s 760 mmHg 82%
    08:00 +13°C° 0 mm 3 m/s 761 mmHg 76%
    09:00 +16°C° 0 mm 3 m/s 761 mmHg 71%
    10:00 +16°C° 0 mm 3 m/s 761 mmHg 69%
    11:00 +17°C° 0 mm 3 m/s 761 mmHg 68%
    12:00 +17°C° 0 mm 3 m/s 761 mmHg 67%
    13:00 +17°C° 0 mm 3 m/s 762 mmHg 66%
    14:00 +17°C° 0 mm 2 m/s 762 mmHg 65%
    15:00 +18°C° 0 mm 2 m/s 762 mmHg 64%
    16:00 +17°C° 0 mm 2 m/s 762 mmHg 67%
    17:00 +17°C° 0 mm 2 m/s 762 mmHg 69%
    18:00 +17°C° 0 mm 2 m/s 762 mmHg 72%
    19:00 +15°C° 0 mm 1 m/s 762 mmHg 76%
    20:00 +14°C° 0 mm 1 m/s 763 mmHg 80%
    21:00 +11°C° 0 mm 0 m/s 763 mmHg 84%
    22:00 +10°C° 0 mm 0 m/s 763 mmHg 84%
    23:00 +10°C° 0 mm 0 m/s 763 mmHg 85%

    22 Iunie, Sâmbătă

    Timp Temperatura Precipitaţii Vânt Presiune Umiditate
    00:00 +9°C° 0 mm 0 m/s 763 mmHg 86%
    01:00 +9°C° 0 mm 0 m/s 763 mmHg 86%
    02:00 +9°C° 0 mm 0 m/s 763 mmHg 86%
    03:00 +9°C° 0 mm 0 m/s 763 mmHg 87%
    04:00 +11°C° 0 mm 1 m/s 763 mmHg 86%
    05:00 +12°C° 0 mm 1 m/s 763 mmHg 85%
    06:00 +13°C° 0 mm 1 m/s 763 mmHg 84%
    07:00 +14°C° 0 mm 1 m/s 763 mmHg 79%
    08:00 +16°C° 0 mm 2 m/s 763 mmHg 74%
    09:00 +17°C° 0 mm 2 m/s 763 mmHg 69%
    10:00 +18°C° 0 mm 2 m/s 763 mmHg 67%
    11:00 +19°C° 0 mm 2 m/s 763 mmHg 66%
    12:00 +19°C° 0 mm 2 m/s 763 mmHg 65%
    13:00 +19°C° 0.1 mm 2 m/s 762 mmHg 65%
    14:00 +20°C° 0.1 mm 2 m/s 762 mmHg 65%
    15:00 +20°C° 0.1 mm 2 m/s 762 mmHg 66%
    16:00 +19°C° 0 mm 2 m/s 762 mmHg 68%
    17:00 +19°C° 0 mm 3 m/s 762 mmHg 70%
    18:00 +19°C° 0 mm 3 m/s 761 mmHg 72%
    19:00 +17°C° 0 mm 3 m/s 762 mmHg 73%
    20:00 +14°C° 0 mm 3 m/s 762 mmHg 74%
    21:00 +12°C° 0 mm 3 m/s 762 mmHg 75%
    22:00 +11°C° 0 mm 3 m/s 762 mmHg 79%
    23:00 +11°C° 0 mm 3 m/s 762 mmHg 83%

    23 Iunie, Duminică

    Timp Temperatura Precipitaţii Vânt Presiune Umiditate
    00:00 +10°C° 0 mm 2 m/s 762 mmHg 87%
    01:00 +10°C° 0 mm 3 m/s 761 mmHg 88%
    02:00 +10°C° 0 mm 3 m/s 761 mmHg 89%
    03:00 +10°C° 0 mm 3 m/s 761 mmHg 90%
    04:00 +11°C° 0 mm 3 m/s 761 mmHg 89%
    05:00 +12°C° 0 mm 4 m/s 761 mmHg 89%
    06:00 +13°C° 0 mm 4 m/s 761 mmHg 89%
    07:00 +14°C° 0 mm 4 m/s 761 mmHg 89%
    08:00 +15°C° 0 mm 4 m/s 761 mmHg 88%
    09:00 +15°C° 0 mm 5 m/s 760 mmHg 88%
    10:00 +17°C° 0.1 mm 5 m/s 760 mmHg 86%
    11:00 +19°C° 0.1 mm 5 m/s 760 mmHg 83%
    12:00 +20°C° 0.1 mm 6 m/s 760 mmHg 81%
    13:00 +21°C° 0.1 mm 6 m/s 760 mmHg 79%
    14:00 +22°C° 0.1 mm 5 m/s 759 mmHg 77%
    15:00 +23°C° 0.1 mm 5 m/s 759 mmHg 76%
    16:00 +22°C° 0.4 mm 5 m/s 759 mmHg 79%
    17:00 +22°C° 0.4 mm 5 m/s 758 mmHg 82%
    18:00 +22°C° 0.4 mm 4 m/s 758 mmHg 85%
    19:00 +20°C° 0.1 mm 4 m/s 758 mmHg 86%
    20:00 +19°C° 0.1 mm 4 m/s 759 mmHg 88%
    21:00 +18°C° 0.1 mm 3 m/s 759 mmHg 90%
    22:00 +18°C° 0 mm 3 m/s 759 mmHg 91%
    23:00 +18°C° 0 mm 3 m/s 758 mmHg 92%

    24 Iunie, Luni

    Timp Temperatura Precipitaţii Vânt Presiune Umiditate
    00:00 +18°C° 0 mm 3 m/s 758 mmHg 94%
    01:00 +18°C° 0 mm 3 m/s 758 mmHg 94%
    02:00 +18°C° 0 mm 3 m/s 758 mmHg 95%
    03:00 +18°C° 0 mm 3 m/s 757 mmHg 96%
    04:00 +18°C° 0.3 mm 3 m/s 758 mmHg 96%
    05:00 +19°C° 0.3 mm 3 m/s 758 mmHg 95%
    06:00 +20°C° 0.3 mm 3 m/s 758 mmHg 95%
    07:00 +20°C° 0.1 mm 4 m/s 758 mmHg 93%
    08:00 +21°C° 0.1 mm 4 m/s 758 mmHg 91%
    09:00 +22°C° 0.1 mm 4 m/s 758 mmHg 88%
    10:00 +23°C° 0.6 mm 4 m/s 759 mmHg 86%
    11:00 +23°C° 0.6 mm 4 m/s 759 mmHg 84%
    12:00 +25°C° 0.6 mm 4 m/s 759 mmHg 82%
    13:00 +25°C° 0.1 mm 4 m/s 759 mmHg 81%
    14:00 +25°C° 0.1 mm 3 m/s 759 mmHg 81%
    15:00 +24°C° 0.1 mm 3 m/s 759 mmHg 81%
    16:00 +24°C° 0 mm 2 m/s 759 mmHg 84%
    17:00 +23°C° 0 mm 2 m/s 759 mmHg 86%
    18:00 +22°C° 0 mm 1 m/s 759 mmHg 89%
    19:00 +22°C° 0 mm 1 m/s 759 mmHg 90%
    20:00 +21°C° 0 mm 1 m/s 759 mmHg 91%
    21:00 +20°C° 0 mm 2 m/s 760 mmHg 91%
    22:00 +20°C° 0.2 mm 2 m/s 759 mmHg 92%
    23:00 +20°C° 0.2 mm 3 m/s 759 mmHg 93%
    Arată mai mult